User: anonymous   Login
Location: Fort Hays State University
(38.8712°N, 99.3432°W)
Time: 06:33:54
(UTC-06:00)
Language:

Cosmos 2279 Rocket - Orbit

View from above orbital plane
View from above orbital plane
View from above satellite
View from above satellite

Ground track
Ground track

The orbit data is extracted from the following two-line orbital elements,

1 23093U 94024B   17053.98602087 -.00000019  00000-0 -34155-4 0  9996
2 23093  82.9476 199.4203 0009320 329.9292  30.1329 13.77719726615700
Epoch (UTC): 22 February 2017 23:39:52
Eccentricity: 0.0009320
inclination: 82.9476°
perigee height: 965 km
apogee height: 979 km
right ascension of ascending node: 199.4203°
argument of perigee: 329.9292°
revolutions per day: 13.77719726
mean anomaly at epoch: 30.1329°
orbit number at epoch: 61570

The dashed part of the orbit path shows where the satellite is in the earth's shadow,  

DLR